Total_Precipitation_Accumulation
0.41 0.45 0.45 0.38 0.34 0.53 0.76 0.89 0.76 0.88 0.96 0.76 0.56 0.51 0.51 0.60 0.78 0.85 0.72 0.75 0.74 0.70 0.82 0.94 0.85 0.72 0.63 0.55 0.48 0.43 0.39 0.40 0.35 0.25 0.19 0.18 0.19 0.21 0.22 0.26 0.27 0.24 0.22
0.74 0.75 0.69 0.62 0.58 0.66 0.80 0.91 0.90 1.00 0.89 0.83 0.53 0.51 0.53 0.59 0.71 0.74 0.66 0.81 0.76 0.64 0.67 0.77 0.77 0.71 0.63 0.59 0.51 0.43 0.36 0.34 0.31 0.23 0.17 0.15 0.14 0.14 0.18 0.24 0.27 0.24 0.18
1.08 1.04 0.84 0.71 0.76 0.90 0.95 0.91 0.90 0.92 0.75 0.71 0.57 0.63 0.61 0.53 0.47 0.44 0.46 0.52 0.58 0.52 0.45 0.46 0.56 0.61 0.64 0.69 0.65 0.59 0.46 0.33 0.24 0.17 0.13 0.10 0.08 0.07 0.10 0.15 0.22 0.23 0.18
1.24 1.19 0.87 0.68 0.85 0.98 0.98 0.93 0.83 0.85 0.81 0.79 0.70 0.64 0.66 0.62 0.44 0.37 0.35 0.33 0.36 0.33 0.34 0.36 0.41 0.47 0.63 0.76 0.78 0.77 0.65 0.43 0.28 0.19 0.13 0.10 0.07 0.05 0.06 0.09 0.15 0.18 0.15
1.26 1.28 1.01 0.88 0.99 0.97 0.89 0.86 0.95 1.09 0.98 0.94 0.92 0.77 0.62 0.51 0.41 0.33 0.26 0.20 0.22 0.29 0.37 0.40 0.34 0.37 0.56 0.79 0.88 0.90 0.82 0.60 0.40 0.28 0.23 0.17 0.12 0.08 0.05 0.05 0.06 0.10 0.11
0.98 1.04 0.87 0.84 0.97 0.95 0.83 0.89 0.95 1.02 0.89 0.93 0.92 0.66 0.50 0.37 0.33 0.27 0.20 0.17 0.14 0.12 0.21 0.33 0.42 0.37 0.44 0.62 0.78 0.88 0.89 0.79 0.59 0.42 0.36 0.30 0.23 0.15 0.09 0.05 0.03 0.05 0.06
0.73 0.85 0.71 0.77 0.85 0.78 0.72 0.76 0.80 0.82 0.69 0.94 1.00 0.57 0.29 0.22 0.17 0.14 0.16 0.14 0.10 0.11 0.13 0.21 0.31 0.38 0.41 0.44 0.60 0.67 0.89 0.96 0.80 0.58 0.47 0.39 0.33 0.25 0.15 0.09 0.06 0.05 0.05
0.77 0.74 0.71 0.70 0.71 0.69 0.60 0.57 0.66 0.66 0.54 0.77 0.86 0.71 0.38 0.20 0.10 0.05 0.08 0.09 0.11 0.15 0.15 0.18 0.25 0.32 0.34 0.41 0.52 0.42 0.56 0.79 0.86 0.78 0.64 0.48 0.41 0.35 0.26 0.20 0.14 0.10 0.07
1.01 0.94 0.85 0.76 0.69 0.68 0.63 0.57 0.60 0.62 0.52 0.53 0.69 0.84 0.60 0.31 0.22 0.11 0.13 0.19 0.26 0.31 0.24 0.23 0.27 0.33 0.36 0.45 0.53 0.59 0.39 0.53 0.75 0.99 0.91 0.69 0.51 0.37 0.30 0.29 0.26 0.18 0.12
1.24 1.10 0.96 0.78 0.64 0.59 0.59 0.54 0.54 0.58 0.59 0.50 0.51 0.62 0.65 0.62 0.55 0.26 0.12 0.17 0.34 0.40 0.36 0.31 0.34 0.38 0.40 0.48 0.63 0.92 0.79 0.62 0.68 0.95 1.05 0.92 0.70 0.50 0.42 0.41 0.51 0.47 0.28
1.02 0.87 0.78 0.70 0.60 0.52 0.49 0.51 0.56 0.60 0.60 0.54 0.51 0.52 0.58 0.68 0.68 0.57 0.30 0.28 0.35 0.34 0.33 0.34 0.39 0.47 0.53 0.66 0.91 1.14 1.32 1.10 0.91 0.81 0.83 0.83 0.81 0.69 0.58 0.60 0.88 1.02 0.80
0.63 0.59 0.55 0.54 0.51 0.50 0.48 0.47 0.50 0.54 0.56 0.58 0.60 0.62 0.66 0.69 0.71 0.79 0.66 0.57 0.52 0.44 0.44 0.52 0.59 0.72 0.80 0.87 0.99 1.19 1.18 1.19 1.15 1.05 0.95 0.84 0.78 0.76 0.75 0.80 1.01 1.24 1.32
0.44 0.47 0.49 0.51 0.49 0.50 0.53 0.59 0.57 0.55 0.58 0.62 0.64 0.70 0.78 0.80 0.85 0.92 0.88 0.78 0.72 0.70 0.75 0.77 0.77 0.88 0.86 0.92 0.98 0.91 0.74 0.80 0.83 0.83 0.81 0.76 0.72 0.75 0.78 0.76 0.88 1.08 1.32
0.46 0.49 0.55 0.59 0.57 0.57 0.55 0.61 0.62 0.63 0.67 0.69 0.65 0.73 0.79 0.79 0.86 0.95 0.97 0.95 0.85 0.87 1.00 1.04 0.88 0.81 0.81 0.86 0.89 0.77 0.68 0.60 0.47 0.41 0.40 0.42 0.45 0.52 0.61 0.73 0.80 0.86 0.95
0.50 0.54 0.62 0.69 0.71 0.70 0.70 0.71 0.69 0.74 0.84 0.88 0.85 0.83 0.85 0.82 0.84 0.92 0.99 1.00 0.95 0.88 0.94 0.99 0.81 0.73 0.69 0.70 0.78 0.80 0.86 0.66 0.37 0.27 0.24 0.24 0.26 0.30 0.35 0.46 0.55 0.67 0.79
0.54 0.58 0.63 0.65 0.70 0.71 0.72 0.74 0.79 0.87 0.97 0.96 0.96 0.99 0.97 0.92 0.90 0.90 0.89 0.96 1.01 1.01 0.93 0.87 0.73 0.66 0.64 0.58 0.61 0.60 0.62 0.47 0.29 0.24 0.23 0.21 0.19 0.20 0.23 0.30 0.37 0.45 0.55
0.51 0.58 0.56 0.50 0.48 0.53 0.63 0.74 0.80 0.88 0.95 0.95 0.96 0.90 0.82 0.79 0.80 0.72 0.75 0.82 0.91 0.98 0.86 0.78 0.72 0.69 0.67 0.62 0.57 0.47 0.40 0.31 0.29 0.27 0.23 0.22 0.20 0.21 0.20 0.20 0.24 0.30 0.39
0.48 0.53 0.50 0.45 0.44 0.51 0.62 0.75 0.89 1.08 1.17 1.10 0.99 0.86 0.74 0.71 0.71 0.69 0.72 0.70 0.72 0.81 0.78 0.74 0.72 0.67 0.61 0.54 0.51 0.48 0.41 0.36 0.38 0.37 0.28 0.23 0.21 0.23 0.21 0.20 0.23 0.26 0.34
0.47 0.47 0.48 0.52 0.63 0.72 0.82 0.92 0.98 1.11 1.15 1.04 0.94 0.82 0.70 0.65 0.65 0.66 0.69 0.67 0.57 0.61 0.69 0.69 0.69 0.65 0.62 0.53 0.44 0.44 0.43 0.52 0.55 0.45 0.31 0.25 0.21 0.21 0.22 0.20 0.25 0.33 0.45
0.29 0.38 0.51 0.69 0.80 0.87 0.90 0.96 0.94 0.90 0.89 0.82 0.73 0.64 0.63 0.68 0.68 0.61 0.57 0.55 0.50 0.47 0.47 0.51 0.57 0.60 0.59 0.52 0.44 0.44 0.51 0.58 0.60 0.49 0.41 0.33 0.25 0.20 0.19 0.17 0.17 0.28 0.42
0.24 0.34 0.48 0.58 0.58 0.61 0.72 0.79 0.77 0.74 0.68 0.63 0.55 0.41 0.40 0.52 0.58 0.54 0.47 0.43 0.40 0.38 0.34 0.35 0.39 0.47 0.51 0.49 0.42 0.38 0.43 0.57 0.63 0.63 0.61 0.53 0.43 0.37 0.36 0.32 0.25 0.25 0.28
0.18 0.25 0.32 0.32 0.30 0.28 0.29 0.32 0.37 0.43 0.43 0.42 0.37 0.32 0.33 0.38 0.39 0.37 0.38 0.36 0.32 0.31 0.31 0.33 0.34 0.36 0.42 0.41 0.37 0.38 0.43 0.57 0.76 0.84 0.88 0.89 0.73 0.69 0.68 0.66 0.49 0.28 0.19
0.15 0.19 0.18 0.18 0.21 0.23 0.15 0.11 0.14 0.22 0.25 0.24 0.22 0.23 0.24 0.26 0.25 0.19 0.18 0.18 0.20 0.22 0.25 0.31 0.33 0.31 0.34 0.34 0.33 0.38 0.46 0.70 0.94 1.07 1.08 1.18 1.00 0.84 0.78 0.72 0.59 0.39 0.25
0.19 0.23 0.20 0.18 0.19 0.21 0.15 0.12 0.11 0.13 0.19 0.19 0.16 0.14 0.15 0.20 0.20 0.16 0.10 0.10 0.11 0.14 0.18 0.22 0.28 0.30 0.29 0.29 0.29 0.29 0.32 0.45 0.66 0.77 0.85 1.07 1.10 1.07 0.96 0.72 0.58 0.48 0.38
0.27 0.25 0.23 0.23 0.24 0.26 0.19 0.13 0.12 0.15 0.23 0.23 0.21 0.18 0.14 0.15 0.16 0.15 0.12 0.08 0.07 0.10 0.15 0.18 0.22 0.26 0.26 0.25 0.24 0.23 0.22 0.24 0.31 0.30 0.32 0.59 0.82 0.94 1.08 1.00 0.74 0.62 0.50
0.37 0.31 0.28 0.29 0.32 0.37 0.32 0.20 0.16 0.21 0.32 0.33 0.30 0.26 0.22 0.18 0.15 0.11 0.11 0.10 0.07 0.07 0.06 0.09 0.12 0.17 0.18 0.19 0.19 0.17 0.20 0.21 0.22 0.20 0.14 0.19 0.31 0.49 0.67 0.76 0.71 0.69 0.70